Notices

What's New in latest Release from April 7th, 2021:

- Updated Glossary, including Speed of Maximum Gust, and Total Hourly Precipitation

- Updated national and regional climate services offices contacts and prices information

- Addition of station inventory lists for 1981-2010, 1971-2000, and 1961-1990 Normals.

If you haven't already, please take our survey and provide feedback about our website: https://eccc.sondage-survey.ca/f/LanguageSelection.aspx?s=442ca660-fcf1-47c0-95a9-59707d6fd709

Hourly Data Report for May 25, 2020

MIRAMICHI RCS
NEW BRUNSWICK
Current Station Operator: ECCC - MSC

47°00'34.000" N
65°27'54.000" W
33.00 m
8100989
71744
ACQ

Download Data

Hourly Data (May 2020)
Hourly Data Report for May 25, 2020
TIME
LST
Temp Definition
°C
Dew Point Definition
°C
Rel Hum Definition
%
Precip. Amount Definition
mm

Wind Dir Definition
10's deg

Wind Spd Definition
km/h
Visibility Definition
km
Stn Press Definition
kPa
Hmdx Definition


Wind Chill Definition


Weather Definition


00:00 12.8 -4.5 30 LegendMM 23 22   101.92     LegendNANA
01:00 11.3 -5.8 30 LegendMM 22 23   101.91     LegendNANA
02:00 9.8 -7.1 29 LegendMM 23 21   101.92     LegendNANA
03:00 8.7 -7.2 32 LegendMM 23 18   101.94     LegendNANA
04:00 7.7 -7.4 33 LegendMM 22 19   101.94     LegendNANA
05:00 6.8 -6.7 38 LegendMM 22 18   101.95     LegendNANA
06:00 7.4 -5.8 39 LegendMM 22 20   101.96     LegendNANA
07:00 8.7 -4.8 38 LegendMM 22 21   101.96     LegendNANA
08:00 10.8 -4.5 34 LegendMM 22 21   101.96     LegendNANA
09:00 14.2 -5.4 25 LegendMM 22 25   101.93     LegendNANA
10:00 17.6 -5.7 20 LegendMM 23 26   101.87     LegendNANA
11:00 19.0 -2.6 23 LegendMM 22 25   101.83     LegendNANA
12:00 21.7 1.7 27 LegendMM 22 24   101.76     LegendNANA
13:00 22.9 5.0 31 LegendMM 21 24   101.69     LegendNANA
14:00 23.9 7.3 34 LegendMM 22 23   101.61     LegendNANA
15:00 24.8 11.3 43 LegendMM 22 30   101.56 27   LegendNANA
16:00 24.6 10.2 40 LegendMM 21 27   101.52 26   LegendNANA
17:00 24.8 13.0 48 LegendMM 21 25   101.45 28   LegendNANA
18:00 23.6 14.1 55 LegendMM 19 27   101.42 27   LegendNANA
19:00 21.4 9.6 47 LegendMM 19 22   101.46     LegendNANA
20:00 19.2 11.3 60 LegendMM 21 22   101.47     LegendNANA
21:00 16.9 8.8 59 LegendMM 21 23   101.52     LegendNANA
22:00 15.7 8.3 61 LegendMM 21 24   101.53     LegendNANA
23:00 14.7 8.8 68 LegendMM 21 19   101.51     LegendNANA

Notes on Data Quality.

Legend

  • E = Estimated
  • M = Missing
  • NA = Not Available*
  • [empty] = Indicates an unobserved value
Date modified: